IBE0801 LEMD-LOWI

Flight info

Callsign IBE0801
Flight time 1h 49m
Altitude 34000
Route PINAR N870 SEGRE YAKXU RONNY N871 TOPTU TOU GAI MEN NINUN LATAM ETREK LTP SOPLO OMASI KINNI SOSAL KORED BERSU N871 DEGES GAMSA N871 MADEB
Aircraft A321/M-SDE3FGHIRWY/LB1

Departure

Time 2026-05-06 09:45
Airport Adolfo Suárez Madrid–Barajas Airport (LEMD)

Arrival

Time 2026-05-06 11:34
Airport Innsbruck Airport (LOWI)
Time Latitude Longitude Altitude Speed Heading
2026-05-06 09:04 40.48965 -3.58963 2023 ft 0 kts 269°
2026-05-06 09:29 40.48965 -3.58943 2027 ft 4 kts 269°
2026-05-06 09:30 40.48965 -3.58915 2025 ft 4 kts 273°
2026-05-06 09:30 40.48958 -3.58886 2028 ft 4 kts 328°
2026-05-06 09:30 40.48935 -3.58879 2027 ft 4 kts 359°
2026-05-06 09:30 40.48925 -3.58878 2031 ft 0 kts 359°
2026-05-06 09:37 40.48928 -3.58879 2028 ft 1 kts 359°
2026-05-06 09:37 40.48974 -3.58880 2032 ft 10 kts 359°
2026-05-06 09:37 40.49039 -3.58881 2028 ft 9 kts 359°
2026-05-06 09:38 40.49115 -3.58882 2022 ft 12 kts 360°
2026-05-06 09:38 40.49196 -3.58883 2022 ft 11 kts
2026-05-06 09:38 40.49238 -3.58825 2031 ft 9 kts 81°
2026-05-06 09:38 40.49240 -3.58729 2030 ft 11 kts 90°
2026-05-06 09:39 40.49240 -3.58634 2028 ft 10 kts 90°
2026-05-06 09:39 40.49240 -3.58529 2017 ft 14 kts 90°
2026-05-06 09:39 40.49241 -3.58353 2010 ft 24 kts 89°
2026-05-06 09:39 40.49242 -3.58204 2007 ft 14 kts 90°
2026-05-06 09:40 40.49242 -3.58076 2004 ft 14 kts 90°
2026-05-06 09:40 40.49236 -3.57964 1998 ft 12 kts 112°
2026-05-06 09:40 40.49172 -3.57807 1994 ft 10 kts 89°
2026-05-06 09:41 40.49172 -3.57721 1991 ft 7 kts 90°
2026-05-06 09:41 40.49172 -3.57658 1991 ft 5 kts 90°
2026-05-06 09:41 40.49176 -3.57623 1991 ft 0 kts 75°
2026-05-06 09:42 40.49177 -3.57617 1991 ft 1 kts 74°
2026-05-06 09:42 40.49180 -3.57604 1988 ft 2 kts 70°
2026-05-06 09:43 40.49186 -3.57584 1988 ft 3 kts 69°
2026-05-06 09:43 40.49203 -3.57535 1987 ft 10 kts 65°
2026-05-06 09:43 40.49244 -3.57458 1983 ft 11 kts 26°
2026-05-06 09:43 40.49349 -3.57452 1983 ft 27 kts 359°
2026-05-06 09:44 40.49773 -3.57454 1988 ft 92 kts
2026-05-06 09:44 40.50597 -3.57461 1994 ft 143 kts 360°
2026-05-06 09:44 40.51731 -3.57471 2005 ft 181 kts 359°
2026-05-06 09:44 40.53009 -3.57469 2522 ft 184 kts
2026-05-06 09:45 40.54291 -3.57471 3172 ft 184 kts
2026-05-06 09:45 40.55589 -3.57361 3562 ft 195 kts 12°
2026-05-06 09:45 40.56964 -3.56906 3823 ft 211 kts 16°
2026-05-06 09:45 40.58421 -3.56338 4061 ft 226 kts 17°
2026-05-06 09:46 40.59977 -3.55709 4396 ft 239 kts 18°
2026-05-06 09:46 40.61564 -3.55058 5092 ft 239 kts 17°
2026-05-06 09:46 40.63160 -3.54425 5759 ft 240 kts 15°
2026-05-06 09:46 40.64805 -3.54068 6419 ft 240 kts
2026-05-06 09:47 40.66478 -3.53921 7044 ft 242 kts
2026-05-06 09:47 40.68167 -3.53789 7643 ft 245 kts
2026-05-06 09:47 40.69823 -3.53232 8222 ft 249 kts 26°
2026-05-06 09:47 40.71255 -3.51889 8647 ft 263 kts 45°
2026-05-06 09:48 40.72391 -3.49891 8917 ft 280 kts 56°
2026-05-06 09:48 40.73471 -3.47711 9418 ft 287 kts 56°
2026-05-06 09:48 40.74579 -3.45509 10040 ft 290 kts 56°
2026-05-06 09:48 40.75749 -3.43236 10244 ft 309 kts 55°
2026-05-06 09:49 40.77005 -3.40822 10366 ft 329 kts 55°
2026-05-06 09:49 40.78333 -3.38274 10563 ft 344 kts 55°
2026-05-06 09:49 40.79699 -3.35652 11045 ft 348 kts 55°
2026-05-06 09:49 40.81073 -3.33011 11633 ft 350 kts 55°
2026-05-06 09:50 40.82455 -3.30346 12214 ft 353 kts 54°
2026-05-06 09:50 40.83842 -3.27663 12805 ft 355 kts 55°
2026-05-06 09:50 40.85105 -3.24856 13380 ft 358 kts 64°
2026-05-06 09:50 40.85974 -3.21758 13938 ft 362 kts 74°
2026-05-06 09:51 40.86609 -3.18530 14410 ft 365 kts 75°
2026-05-06 09:51 40.87249 -3.15269 14871 ft 369 kts 74°
2026-05-06 09:51 40.87896 -3.11972 15334 ft 372 kts 74°
2026-05-06 09:51 40.88540 -3.08693 15797 ft 375 kts 74°
2026-05-06 09:52 40.89200 -3.05347 16250 ft 378 kts 74°
2026-05-06 09:52 40.89867 -3.01964 16696 ft 382 kts 74°
2026-05-06 09:52 40.90548 -2.98508 17155 ft 385 kts 74°
2026-05-06 09:52 40.91216 -2.95112 17586 ft 388 kts 74°
2026-05-06 09:53 40.91895 -2.91642 18034 ft 391 kts 73°
2026-05-06 09:53 40.92578 -2.88146 18445 ft 394 kts 73°
2026-05-06 09:53 40.93266 -2.84620 18784 ft 398 kts 74°
2026-05-06 09:53 40.93956 -2.81058 19109 ft 402 kts 74°
2026-05-06 09:54 40.94652 -2.77460 19423 ft 406 kts 74°
2026-05-06 09:54 40.95354 -2.73826 19727 ft 409 kts 74°
2026-05-06 09:54 40.96060 -2.70165 20028 ft 413 kts 74°
2026-05-06 09:54 40.96770 -2.66465 20330 ft 417 kts 75°
2026-05-06 09:55 40.97488 -2.62726 20594 ft 421 kts 75°
2026-05-06 09:55 40.98212 -2.58959 20871 ft 425 kts 75°
2026-05-06 09:55 40.98944 -2.55158 21154 ft 428 kts 75°
2026-05-06 09:55 40.99679 -2.51323 21433 ft 431 kts 75°
2026-05-06 09:56 41.00417 -2.47459 21719 ft 435 kts 75°
2026-05-06 09:56 41.01213 -2.43583 21996 ft 438 kts 70°
2026-05-06 09:56 41.02428 -2.39886 22275 ft 439 kts 59°
2026-05-06 09:56 41.03490 -2.37607 22446 ft 439 kts 52°
2026-05-06 09:57 41.05444 -2.34503 22735 ft 439 kts 41°
2026-05-06 09:57 41.07742 -2.31852 23011 ft 439 kts 35°
2026-05-06 09:57 41.10140 -2.29318 23297 ft 443 kts 35°
2026-05-06 09:57 41.12556 -2.26758 23544 ft 447 kts 35°
2026-05-06 09:58 41.14995 -2.24164 23765 ft 451 kts 35°
2026-05-06 09:58 41.17449 -2.21551 24023 ft 453 kts 35°
2026-05-06 09:58 41.19911 -2.18926 24300 ft 455 kts 35°
2026-05-06 09:58 41.22386 -2.16288 24575 ft 457 kts 35°
2026-05-06 09:59 41.24871 -2.13639 24849 ft 459 kts 35°
2026-05-06 09:59 41.27366 -2.10976 25118 ft 461 kts 35°
2026-05-06 09:59 41.29875 -2.08295 25387 ft 463 kts 35°
2026-05-06 09:59 41.32389 -2.05607 25653 ft 465 kts 35°
2026-05-06 10:00 41.34910 -2.02905 26005 ft 465 kts 35°
2026-05-06 10:00 41.37430 -2.00200 26315 ft 466 kts 34°
2026-05-06 10:00 41.39956 -1.97488 26583 ft 468 kts 35°
2026-05-06 10:00 41.42492 -1.94761 26828 ft 470 kts 35°
2026-05-06 10:01 41.45040 -1.92021 27092 ft 471 kts 35°
2026-05-06 10:01 41.47599 -1.89264 27303 ft 474 kts 35°
2026-05-06 10:01 41.50171 -1.86491 27474 ft 478 kts 35°
2026-05-06 10:01 41.52762 -1.83697 27709 ft 479 kts 35°
2026-05-06 10:02 41.55358 -1.80892 27969 ft 481 kts 35°
2026-05-06 10:02 41.57961 -1.78075 28257 ft 482 kts 35°
2026-05-06 10:02 41.60566 -1.75251 28515 ft 483 kts 35°
2026-05-06 10:02 41.63180 -1.72415 28734 ft 485 kts 35°
2026-05-06 10:03 41.65805 -1.69567 28949 ft 487 kts 35°
2026-05-06 10:03 41.68437 -1.66708 29149 ft 489 kts 35°
2026-05-06 10:03 41.71047 -1.63869 29326 ft 491 kts 35°
2026-05-06 10:03 41.73698 -1.60984 29519 ft 492 kts 35°
2026-05-06 10:04 41.76356 -1.58090 29695 ft 493 kts 35°
2026-05-06 10:04 41.79023 -1.55184 29918 ft 494 kts 35°
2026-05-06 10:04 41.81684 -1.52273 30134 ft 494 kts 35°
2026-05-06 10:04 41.84349 -1.49351 30272 ft 495 kts 35°
2026-05-06 10:05 41.87019 -1.46419 30439 ft 496 kts 35°
2026-05-06 10:05 41.89685 -1.43493 30627 ft 495 kts 35°
2026-05-06 10:05 41.92354 -1.40566 30828 ft 495 kts 35°
2026-05-06 10:05 41.95020 -1.37639 31041 ft 494 kts 35°
2026-05-06 10:06 41.97682 -1.34716 31252 ft 494 kts 35°
2026-05-06 10:06 42.00338 -1.31797 31503 ft 493 kts 36°
2026-05-06 10:06 42.02992 -1.28874 31726 ft 492 kts 36°
2026-05-06 10:06 42.05641 -1.25953 31931 ft 492 kts 36°
2026-05-06 10:07 42.08283 -1.23034 32139 ft 492 kts 36°
2026-05-06 10:07 42.10923 -1.20111 32339 ft 491 kts 36°
2026-05-06 10:07 42.13558 -1.17189 32550 ft 490 kts 36°
2026-05-06 10:07 42.16191 -1.14271 32747 ft 490 kts 36°
2026-05-06 10:08 42.18827 -1.11351 32891 ft 491 kts 36°
2026-05-06 10:08 42.21464 -1.08428 33119 ft 490 kts 36°
2026-05-06 10:08 42.24096 -1.05499 33348 ft 490 kts 36°
2026-05-06 10:08 42.26720 -1.02576 33550 ft 489 kts 36°
2026-05-06 10:09 42.29340 -0.99654 33756 ft 488 kts 36°
2026-05-06 10:09 42.31960 -0.96732 33943 ft 488 kts 36°
2026-05-06 10:09 42.37157 -0.90923 33988 ft 482 kts 36°
2026-05-06 10:10 42.42276 -0.85077 33991 ft 483 kts 41°
2026-05-06 10:10 42.46550 -0.78105 33989 ft 486 kts 50°
2026-05-06 10:11 42.50673 -0.70843 33981 ft 487 kts 50°
2026-05-06 10:11 42.54805 -0.63572 33980 ft 487 kts 50°
2026-05-06 10:12 42.58931 -0.56287 33984 ft 487 kts 50°
2026-05-06 10:12 42.63047 -0.48990 34004 ft 487 kts 50°
2026-05-06 10:13 42.67163 -0.41677 33994 ft 487 kts 50°
2026-05-06 10:13 42.71272 -0.34361 33981 ft 486 kts 50°
2026-05-06 10:14 42.75371 -0.27038 33972 ft 487 kts 50°
2026-05-06 10:14 42.79470 -0.19710 33970 ft 487 kts 50°
2026-05-06 10:15 42.83665 -0.12491 33972 ft 486 kts 48°
2026-05-06 10:15 42.87992 -0.05417 33977 ft 485 kts 47°
2026-05-06 10:16 42.92313 0.01655 33960 ft 486 kts 48°
2026-05-06 10:16 42.96595 0.08787 33960 ft 486 kts 49°
2026-05-06 10:17 43.00861 0.15950 33961 ft 487 kts 49°
2026-05-06 10:17 43.05126 0.23138 33995 ft 487 kts 49°
2026-05-06 10:18 43.09390 0.30333 33986 ft 487 kts 49°
2026-05-06 10:18 43.13661 0.37532 33984 ft 487 kts 49°
2026-05-06 10:19 43.17937 0.44748 33981 ft 488 kts 49°
2026-05-06 10:19 43.22207 0.51988 33978 ft 489 kts 49°
2026-05-06 10:20 43.26473 0.59248 34007 ft 488 kts 49°
2026-05-06 10:20 43.30702 0.66457 33995 ft 488 kts 49°
2026-05-06 10:21 43.34948 0.73714 33993 ft 487 kts 49°
2026-05-06 10:21 43.39190 0.80988 33964 ft 488 kts 49°
2026-05-06 10:22 43.43432 0.88281 33987 ft 489 kts 49°
2026-05-06 10:22 43.47670 0.95580 33994 ft 487 kts 49°
2026-05-06 10:23 43.51890 1.02850 33991 ft 485 kts 49°
2026-05-06 10:23 43.56099 1.10118 33985 ft 485 kts 50°
2026-05-06 10:24 43.60291 1.17399 33972 ft 485 kts 50°
2026-05-06 10:24 43.64480 1.24695 33992 ft 485 kts 50°
2026-05-06 10:25 43.68658 1.31998 33994 ft 484 kts 50°
2026-05-06 10:25 43.72712 1.39412 33994 ft 483 kts 52°
2026-05-06 10:26 43.76665 1.46938 33989 ft 483 kts 52°
2026-05-06 10:26 43.80611 1.54457 33966 ft 483 kts 52°
2026-05-06 10:27 43.84582 1.61956 33972 ft 483 kts 52°
2026-05-06 10:27 43.88560 1.69453 33976 ft 482 kts 52°
2026-05-06 10:28 43.92502 1.76896 33978 ft 481 kts 52°
2026-05-06 10:28 43.96442 1.84399 33974 ft 481 kts 53°
2026-05-06 10:29 44.00278 1.92018 33959 ft 482 kts 54°
2026-05-06 10:29 44.04046 1.99702 33976 ft 481 kts 54°
2026-05-06 10:30 44.07819 2.07367 33972 ft 480 kts 54°
2026-05-06 10:30 44.11611 2.14995 33971 ft 479 kts 54°
2026-05-06 10:31 44.15399 2.22623 33968 ft 479 kts 54°
2026-05-06 10:31 44.19168 2.30266 33950 ft 478 kts 54°
2026-05-06 10:32 44.22925 2.37928 33958 ft 479 kts 55°
2026-05-06 10:32 44.26684 2.45614 33955 ft 479 kts 55°
2026-05-06 10:33 44.30402 2.53235 33964 ft 478 kts 55°
2026-05-06 10:33 44.34149 2.60916 33962 ft 478 kts 55°
2026-05-06 10:34 44.37892 2.68601 33945 ft 478 kts 55°
2026-05-06 10:34 44.41631 2.76298 33960 ft 479 kts 56°
2026-05-06 10:35 44.45359 2.84009 33947 ft 478 kts 56°
2026-05-06 10:35 44.49082 2.91735 33941 ft 478 kts 56°
2026-05-06 10:36 44.52799 2.99462 33941 ft 478 kts 56°
2026-05-06 10:36 44.56518 3.07195 33922 ft 479 kts 56°
2026-05-06 10:37 44.60229 3.14950 33933 ft 479 kts 57°
2026-05-06 10:37 44.63736 3.22901 33932 ft 479 kts 61°
2026-05-06 10:38 44.66934 3.31103 33930 ft 479 kts 63°
2026-05-06 10:38 44.70091 3.39343 33924 ft 479 kts 62°
2026-05-06 10:39 44.73326 3.47530 33925 ft 479 kts 61°
2026-05-06 10:39 44.76604 3.55693 33924 ft 479 kts 61°
2026-05-06 10:40 44.79874 3.63865 33928 ft 479 kts 62°
2026-05-06 10:40 44.83121 3.72062 33928 ft 479 kts 62°
2026-05-06 10:41 44.86352 3.80274 33929 ft 479 kts 62°
2026-05-06 10:41 44.89582 3.88506 33906 ft 480 kts 62°
2026-05-06 10:42 44.92800 3.96715 33920 ft 482 kts 62°
2026-05-06 10:42 44.96031 4.04989 33931 ft 481 kts 62°
2026-05-06 10:43 44.99253 4.13265 33937 ft 480 kts 62°
2026-05-06 10:44 45.04075 4.25678 33911 ft 481 kts 63°
2026-05-06 10:44 45.07289 4.33989 33908 ft 483 kts 63°
2026-05-06 10:45 45.10510 4.42339 33906 ft 483 kts 63°
2026-05-06 10:45 45.13724 4.50705 33923 ft 483 kts 63°
2026-05-06 10:46 45.16930 4.59069 33926 ft 483 kts 63°
2026-05-06 10:46 45.20136 4.67462 33909 ft 485 kts 63°
2026-05-06 10:47 45.22807 4.74466 33911 ft 487 kts 63°
2026-05-06 10:47 45.26025 4.82938 33916 ft 488 kts 63°
2026-05-06 10:48 45.29245 4.91436 33959 ft 489 kts 64°
2026-05-06 10:48 45.32456 4.99942 33970 ft 488 kts 64°
2026-05-06 10:49 45.35665 5.08453 33943 ft 488 kts 64°
2026-05-06 10:49 45.38863 5.16982 33947 ft 489 kts 64°
2026-05-06 10:50 45.42063 5.25542 33961 ft 490 kts 64°
2026-05-06 10:50 45.45262 5.34116 33958 ft 490 kts 64°
2026-05-06 10:51 45.48643 5.42543 33976 ft 491 kts 54°
2026-05-06 10:51 45.53343 5.49576 33941 ft 492 kts 41°
2026-05-06 10:52 45.58457 5.56063 33938 ft 492 kts 42°
2026-05-06 10:52 45.63564 5.62592 33930 ft 493 kts 42°
2026-05-06 10:53 45.68659 5.69136 33951 ft 492 kts 42°
2026-05-06 10:53 45.73746 5.75697 33945 ft 492 kts 42°
2026-05-06 10:54 45.78838 5.82244 33946 ft 492 kts 42°
2026-05-06 10:54 45.83934 5.88787 33964 ft 492 kts 42°
2026-05-06 10:55 45.88984 5.95294 33926 ft 491 kts 42°
2026-05-06 10:55 45.94067 6.01873 33929 ft 492 kts 43°
2026-05-06 10:56 45.99152 6.08480 33931 ft 493 kts 43°
2026-05-06 10:56 46.04267 6.15141 33961 ft 492 kts 43°
2026-05-06 10:57 46.09294 6.21704 33934 ft 490 kts 43°
2026-05-06 10:57 46.14217 6.28491 33933 ft 489 kts 45°
2026-05-06 10:58 46.19013 6.35446 33930 ft 489 kts 46°
2026-05-06 10:58 46.23810 6.42396 33889 ft 488 kts 46°
2026-05-06 10:59 46.28637 6.49312 33883 ft 489 kts 46°
2026-05-06 10:59 46.33481 6.56223 33871 ft 489 kts 46°
2026-05-06 11:00 46.38321 6.63159 33876 ft 490 kts 46°
2026-05-06 11:00 46.43152 6.70115 33882 ft 490 kts 46°
2026-05-06 11:01 46.47975 6.77093 33880 ft 489 kts 46°
2026-05-06 11:01 46.52780 6.84070 33877 ft 489 kts 47°
2026-05-06 11:02 46.57397 6.91286 33853 ft 487 kts 54°
2026-05-06 11:02 46.61669 6.98956 33859 ft 489 kts 54°
2026-05-06 11:03 46.65946 7.06672 33872 ft 490 kts 54°
2026-05-06 11:03 46.70214 7.14410 33876 ft 491 kts 54°
2026-05-06 11:04 46.74491 7.22164 33887 ft 491 kts 54°
2026-05-06 11:04 46.78763 7.29923 33885 ft 491 kts 54°
2026-05-06 11:05 46.83021 7.37676 33853 ft 491 kts 54°
2026-05-06 11:05 46.87277 7.45484 33871 ft 491 kts 54°
2026-05-06 11:06 46.91489 7.53227 33832 ft 492 kts 54°
2026-05-06 11:06 46.95754 7.61069 33846 ft 493 kts 55°
2026-05-06 11:07 47.00011 7.68930 33841 ft 493 kts 54°
2026-05-06 11:07 47.04258 7.76816 33838 ft 494 kts 55°
2026-05-06 11:08 47.08512 7.84737 33838 ft 494 kts 55°
2026-05-06 11:08 47.12752 7.92647 33860 ft 494 kts 56°
2026-05-06 11:09 47.16504 8.01014 33848 ft 491 kts 62°
2026-05-06 11:09 47.20133 8.09524 33847 ft 492 kts 62°
2026-05-06 11:10 47.23762 8.18068 33851 ft 492 kts 62°
2026-05-06 11:10 47.27375 8.26614 33853 ft 492 kts 62°
2026-05-06 11:11 47.30335 8.35584 33827 ft 484 kts 78°
2026-05-06 11:11 47.31769 8.45160 33817 ft 479 kts 85°
2026-05-06 11:12 47.33010 8.54818 33819 ft 480 kts 85°
2026-05-06 11:12 47.34251 8.64493 33819 ft 480 kts 85°
2026-05-06 11:13 47.35493 8.74195 33047 ft 482 kts 85°
2026-05-06 11:13 47.36111 8.79033 32471 ft 477 kts 85°
2026-05-06 11:13 47.36719 8.83823 31878 ft 475 kts 85°
2026-05-06 11:13 47.37322 8.88598 31296 ft 472 kts 85°
2026-05-06 11:14 47.37919 8.93348 30718 ft 470 kts 86°
2026-05-06 11:14 47.38513 8.98081 30147 ft 468 kts 85°
2026-05-06 11:14 47.39095 9.02723 29527 ft 465 kts 85°
2026-05-06 11:14 47.39677 9.07386 28972 ft 460 kts 85°
2026-05-06 11:15 47.40256 9.12068 28408 ft 455 kts 85°
2026-05-06 11:15 47.40808 9.16573 27873 ft 450 kts 85°
2026-05-06 11:15 47.41202 9.21105 27336 ft 438 kts 93°
2026-05-06 11:15 47.41208 9.25539 26897 ft 428 kts 96°
2026-05-06 11:16 47.41172 9.29910 26427 ft 423 kts 96°
2026-05-06 11:16 47.41141 9.34219 25985 ft 416 kts 96°
2026-05-06 11:16 47.41112 9.38449 25531 ft 409 kts 96°
2026-05-06 11:16 47.41079 9.42613 25119 ft 401 kts 96°
2026-05-06 11:17 47.41041 9.46684 24713 ft 394 kts 96°
2026-05-06 11:17 47.41000 9.50704 24315 ft 389 kts 95°
2026-05-06 11:17 47.40957 9.54665 23906 ft 384 kts 95°
2026-05-06 11:17 47.40917 9.58567 23517 ft 379 kts 95°
2026-05-06 11:18 47.40877 9.62431 23052 ft 375 kts 96°
2026-05-06 11:18 47.40706 9.66209 22675 ft 364 kts 105°
2026-05-06 11:18 47.40232 9.69930 22267 ft 376 kts 107°
2026-05-06 11:18 47.39728 9.73739 21851 ft 379 kts 106°
2026-05-06 11:19 47.39230 9.77554 21433 ft 379 kts 106°
2026-05-06 11:19 47.38739 9.81349 21011 ft 377 kts 106°
2026-05-06 11:19 47.38247 9.85128 20590 ft 375 kts 106°
2026-05-06 11:19 47.37753 9.88903 20153 ft 375 kts 106°
2026-05-06 11:20 47.37262 9.92661 19735 ft 372 kts 106°
2026-05-06 11:20 47.36772 9.96392 19305 ft 369 kts 107°
2026-05-06 11:20 47.36284 10.00103 18890 ft 368 kts 107°
2026-05-06 11:20 47.35798 10.03791 18469 ft 365 kts 107°
2026-05-06 11:21 47.35315 10.07441 18062 ft 361 kts 107°
2026-05-06 11:21 47.34834 10.11064 17612 ft 359 kts 108°
2026-05-06 11:21 47.34354 10.14653 17206 ft 356 kts 108°
2026-05-06 11:21 47.33874 10.18224 16802 ft 353 kts 108°
2026-05-06 11:22 47.33396 10.21765 16395 ft 351 kts 108°
2026-05-06 11:22 47.32925 10.25243 15999 ft 350 kts 107°
2026-05-06 11:22 47.32445 10.28799 15603 ft 348 kts 108°
2026-05-06 11:22 47.31976 10.32279 15200 ft 347 kts 107°
2026-05-06 11:23 47.31502 10.35767 14773 ft 346 kts 108°
2026-05-06 11:23 47.31035 10.39180 14372 ft 344 kts 108°
2026-05-06 11:23 47.30562 10.42618 13957 ft 341 kts 107°
2026-05-06 11:23 47.30089 10.46039 13551 ft 340 kts 108°
2026-05-06 11:24 47.29627 10.49394 13418 ft 326 kts 108°
2026-05-06 11:24 47.29192 10.52581 13287 ft 309 kts 108°
2026-05-06 11:24 47.28782 10.55604 13141 ft 292 kts 108°
2026-05-06 11:24 47.28650 10.58529 13031 ft 287 kts 93°
2026-05-06 11:25 47.28792 10.61452 12908 ft 286 kts 92°
2026-05-06 11:25 47.28938 10.64365 12779 ft 285 kts 92°
2026-05-06 11:25 47.29085 10.67290 12340 ft 289 kts 91°
2026-05-06 11:25 47.29232 10.70234 11864 ft 288 kts 91°
2026-05-06 11:26 47.29380 10.73150 11411 ft 283 kts 90°
2026-05-06 11:26 47.29526 10.76030 10981 ft 279 kts 90°
2026-05-06 11:26 47.29671 10.78862 10523 ft 274 kts 90°
2026-05-06 11:26 47.29812 10.81610 10226 ft 263 kts 90°
2026-05-06 11:27 47.29947 10.84257 9868 ft 256 kts 90°
2026-05-06 11:27 47.30075 10.86842 9458 ft 250 kts 89°
2026-05-06 11:27 47.30198 10.89372 9069 ft 243 kts 89°
2026-05-06 11:27 47.30317 10.91785 8685 ft 230 kts 89°
2026-05-06 11:28 47.30431 10.94089 8311 ft 220 kts 90°
2026-05-06 11:28 47.30538 10.96286 7979 ft 210 kts 89°
2026-05-06 11:28 47.30640 10.98404 7653 ft 205 kts 89°
2026-05-06 11:28 47.30737 11.00478 7337 ft 200 kts 90°
2026-05-06 11:29 47.30832 11.02473 7031 ft 195 kts 90°
2026-05-06 11:29 47.30928 11.04471 6722 ft 191 kts 88°
2026-05-06 11:29 47.30963 11.06386 6427 ft 189 kts 96°
2026-05-06 11:29 47.30670 11.08270 6121 ft 189 kts 112°
2026-05-06 11:30 47.30136 11.10032 5814 ft 188 kts 116°
2026-05-06 11:30 47.29569 11.11764 5508 ft 186 kts 116°
2026-05-06 11:30 47.29007 11.13454 5208 ft 182 kts 116°
2026-05-06 11:30 47.28461 11.15085 4931 ft 172 kts 115°
2026-05-06 11:31 47.27951 11.16612 4670 ft 161 kts 116°
2026-05-06 11:31 47.27470 11.18060 4424 ft 156 kts 115°
2026-05-06 11:31 47.27001 11.19477 4189 ft 154 kts 114°
2026-05-06 11:31 47.26538 11.20880 3940 ft 154 kts 116°
2026-05-06 11:32 47.26068 11.22300 3687 ft 153 kts 115°
2026-05-06 11:32 47.25604 11.23702 3460 ft 152 kts 118°
2026-05-06 11:32 47.25321 11.25203 3125 ft 155 kts 97°
2026-05-06 11:32 47.25304 11.26757 2938 ft 154 kts 89°
2026-05-06 11:33 47.25408 11.28332 2710 ft 153 kts 87°
2026-05-06 11:33 47.25560 11.29864 2482 ft 150 kts 85°
2026-05-06 11:33 47.25703 11.31363 2243 ft 146 kts 85°
2026-05-06 11:33 47.25857 11.32807 1991 ft 145 kts 83°
2026-05-06 11:34 47.26003 11.34187 1903 ft 129 kts 83°
2026-05-06 11:34 47.26094 11.35068 1899 ft 44 kts 81°
2026-05-06 11:34 47.26117 11.35284 1904 ft 17 kts 80°
2026-05-06 11:34 47.26134 11.35443 1898 ft 15 kts 81°
2026-05-06 11:35 47.26132 11.35582 1893 ft 13 kts 115°
2026-05-06 11:35 47.26124 11.35659 1900 ft 10 kts 60°
2026-05-06 11:35 47.26149 11.35567 1901 ft 19 kts 262°
2026-05-06 11:35 47.26128 11.35391 1897 ft 14 kts 259°
2026-05-06 11:36 47.26100 11.35269 1890 ft 12 kts 220°
2026-05-06 11:36 47.26025 11.35265 1902 ft 11 kts 168°
2026-05-06 11:36 47.25954 11.35285 1899 ft 10 kts 170°
2026-05-06 11:36 47.25903 11.35253 1896 ft 8 kts 245°
2026-05-06 11:37 47.25893 11.35179 1894 ft 7 kts 261°
2026-05-06 11:37 47.25880 11.35116 1904 ft 6 kts 229°
2026-05-06 11:37 47.25846 11.35107 1897 ft 5 kts 176°
2026-05-06 11:37 47.25830 11.35110 1896 ft 0 kts 172°